Ramona, CA

10:21 AM PDT on March 26, 2017 (GMT -0700)
Ramona

Weather History for KRNM - March, 2013

Change the Weather History Date:

Friday, March 1, 2013

  Actual Average Record
Temperature  
Mean Temperature 58 °F 52 °F  
Max Temperature 81 °F 65 °F 84 °F (2009)
Min Temperature 35 °F 39 °F 24 °F (1977)
Degree Days  
Heating Degree Days 7 13  
Month to date heating degree days 7 13  
Since 1 July heating degree days 1780 1754  
Cooling Degree Days 0 0  
Month to date cooling degree days 0 0  
Year to date cooling degree days 0 1  
Growing Degree Days 8 (Base 50)    
Moisture  
Dew Point 22 °F    
Average Humidity 37    
Maximum Humidity 64    
Minimum Humidity 10    
Precipitation  
Precipitation 0.00 in 0.17 in 1.70 in (1983)
Month to date precipitation 0.00 0.17  
Year to date precipitation 2.56 6.60  
Since 1 July precipitation 6.20  
Snow  
Snow 0.00 in - - ()
Month to date snowfall 0.0  
Year to date snowfall 0.0  
Snow Depth 0.00 in    
Sea Level Pressure  
Sea Level Pressure 30.22 in    
Wind  
Wind Speed 11 mph (ENE)    
Max Wind Speed 25 mph    
Max Gust Speed 32 mph    
Visibility 10 miles    
Events      
T = Trace of Precipitation, MM = Missing Value Source: NWS Daily Summary

Daily Weather History Graph

Daily Weather History Graph

Search for Another Location

Airport or City:

Trip Planner

Search our weather history database for the weather conditions in past years. The results will help you decide how hot, cold, wet, or windy it might be!

Date:

Astronomy

Mar. 01, 2013 Rise Set
Actual Time 6:15 AM PST 5:45 PM PST
Civil Twilight 5:50 AM PST 6:09 PM PST
Nautical Twilight 5:21 AM PST 6:38 PM PST
Astronomical Twilight 4:53 AM PST 7:07 PM PST
Moon 10:05 PM PST (3/1) 8:20 AM PST (3/1)
Length of Visible Light 12h 19m
Length of Day
11h 29m
Waning Gibbous, 82% of the Moon is Illuminated
Mar 1
Waning Gibbous
Mar 4
Last Quarter
Mar 11
New
Mar 19
First Quarter
Mar 27
Full

Hourly Weather History & Observations

Time (PST) Temp. Windchill Dew Point Humidity Pressure Visibility Wind Dir Wind Speed Gust Speed Precip Events Conditions
12:53 AM 37.9 °F - 25.0 °F 60% 30.30 in 10.0 mi Calm Calm - N/A   Clear
1:53 AM 45.0 °F 43.5 °F 21.9 °F 40% 30.28 in 10.0 mi ENE 3.5 mph - N/A   Clear
2:53 AM 53.1 °F - 19.0 °F 26% 30.26 in 10.0 mi NNE 8.1 mph - N/A   Clear
3:53 AM 44.1 °F 42.5 °F 21.0 °F 40% 30.26 in 10.0 mi East 3.5 mph - N/A   Clear
4:53 AM 39.0 °F - 24.1 °F 55% 30.27 in 10.0 mi Calm Calm - N/A   Clear
5:53 AM 44.1 °F 39.5 °F 24.1 °F 45% 30.27 in 10.0 mi ENE 8.1 mph - N/A   Clear
6:53 AM 63.0 °F - 18.0 °F 18% 30.25 in 10.0 mi ENE 9.2 mph - N/A   Clear
7:53 AM 69.1 °F - 17.1 °F 14% 30.25 in 10.0 mi East 12.7 mph 21.9 mph N/A   Clear
8:53 AM 73.0 °F - 18.0 °F 12% 30.25 in 10.0 mi ENE 13.8 mph 24.2 mph N/A   Clear
9:53 AM 75.0 °F - 17.1 °F 11% 30.25 in 10.0 mi ENE 21.9 mph 31.1 mph N/A   Clear
10:53 AM 75.9 °F - 17.1 °F 11% 30.23 in 10.0 mi East 24.2 mph 31.1 mph N/A   Clear
11:53 AM 79.0 °F - 19.0 °F 11% 30.22 in 10.0 mi East 21.9 mph 28.8 mph N/A   Clear
12:53 PM 80.1 °F - 19.0 °F 10% 30.19 in 10.0 mi East 17.3 mph 25.3 mph N/A   Clear
1:53 PM 80.1 °F - 19.9 °F 11% 30.17 in 10.0 mi East 16.1 mph 21.9 mph N/A   Clear
2:53 PM 80.1 °F - 21.0 °F 11% 30.15 in 10.0 mi East 16.1 mph 26.5 mph N/A   Clear
3:53 PM 78.1 °F - 19.0 °F 11% 30.16 in 10.0 mi East 18.4 mph 26.5 mph N/A   Clear
4:53 PM 75.0 °F - 19.0 °F 12% 30.17 in 10.0 mi ENE 16.1 mph - N/A   Clear
5:53 PM 70.0 °F - 19.9 °F 15% 30.18 in 10.0 mi ENE 8.1 mph - N/A   Clear
6:53 PM 61.0 °F - 23.0 °F 23% 30.18 in 10.0 mi NE 5.8 mph - N/A   Clear
7:53 PM 57.9 °F - 24.1 °F 27% 30.19 in 10.0 mi Calm Calm - N/A   Clear
8:53 PM 52.0 °F - 27.0 °F 38% 30.20 in 10.0 mi Calm Calm - N/A   Clear
9:53 PM 48.9 °F - 28.0 °F 44% 30.21 in 10.0 mi East 3.5 mph - N/A   Clear
10:53 PM 45.0 °F 43.5 °F 28.9 °F 53% 30.21 in 10.0 mi SSE 3.5 mph - N/A   Clear
11:53 PM 45.0 °F - 28.9 °F 53% 30.21 in 10.0 mi Calm Calm - N/A   Clear